This is the latest recevied weather packets stored in our database for station/object W9ESR. If no packets are shown the sender has not sent any weather packets the latest 1 day(s).
| Time | Temp. | Humidity | Pressure | Rain* | Wind** | Luminosity | Snow |
|---|---|---|---|---|---|---|---|
| 1778027517 | 12.78° C | 36% | - | 0 mm | 5.36 m/s, 22° | - | - |
| 1778027212 | 12.78° C | 36% | - | 0 mm | 6.26 m/s, 10° | - | - |
| 1778026909 | 12.78° C | 36% | - | 0 mm | 6.71 m/s, 15° | - | - |
| 1778026604 | 12.78° C | 36% | - | 0 mm | 6.26 m/s, 2° | - | - |
| 1778026302 | 12.78° C | 36% | - | 0 mm | 7.15 m/s, 5° | - | - |
| 1778025999 | 12.78° C | 36% | - | 0 mm | 8.05 m/s, 2° | - | - |
| 1778025696 | 13.33° C | 37% | - | 0 mm | 3.58 m/s, 15° | - | - |
| 1778025394 | 12.78° C | 39% | - | 0 mm | 3.58 m/s, 4° | - | - |
| 1778025091 | 12.78° C | 38% | - | 0 mm | 2.68 m/s, 1° | - | - |
| 1778024788 | 12.78° C | 39% | - | 0 mm | 1.34 m/s, 348° | - | - |
| 1778024485 | 12.78° C | 39% | - | 0 mm | 0.45 m/s, 279° | - | - |
| 1778024182 | 12.78° C | 38% | - | 0 mm | 2.24 m/s, 312° | - | - |
| 1778023880 | 12.78° C | 37% | - | 0 mm | 3.58 m/s, 322° | - | - |
| 1778023577 | 12.78° C | 39% | - | 0 mm | 0.89 m/s, 252° | - | - |
| 1778023275 | 12.78° C | 38% | - | 0 mm | 1.79 m/s, 282° | - | - |
| 1778022971 | 12.78° C | 38% | - | 0 mm | 3.13 m/s, 14° | - | - |
| 1778022670 | 12.78° C | 37% | - | 0 mm | 5.36 m/s, 356° | - | - |
| 1778022368 | 12.78° C | 38% | - | 0 mm | 3.13 m/s, 341° | - | - |
| 1778022063 | 12.78° C | 38% | - | 0 mm | 1.79 m/s, 279° | - | - |
| 1778021760 | 12.78° C | 38% | - | 0 mm | 3.58 m/s, 313° | - | - |
| 1778021456 | 12.78° C | 37% | - | 0 mm | 3.58 m/s, 7° | - | - |
| 1778021154 | 12.78° C | 38% | - | 0 mm | 4.47 m/s, 278° | - | - |
| 1778020851 | 12.78° C | 38% | - | 0 mm | 4.02 m/s, 347° | - | - |
| 1778020548 | 12.78° C | 39% | - | 0 mm | 2.68 m/s, 357° | - | - |
| 1778020244 | 12.78° C | 39% | - | 0 mm | 2.24 m/s, 340° | - | - |
* Rain latest hour (hover to see other rain measurements)
** Current wind speed in m/s (hover to see current wind gust speed)